sat.trackr.live / text

‹ back to catalog

STARLINK-3072

NORAD 49153 · 2021-082Z

PAYLOAD ACTIVE UNKNOWN

§ Identity

Operator
Country
US
Launch date
2021-09-14
Launch site
AFWTR
Launch vehicle
Mass (kg)
RCS (m²)

Purposes: comms

External: N2YO · Heavens-Above · Gunter

§ Orbital elements

Epoch: 2026-09-13T00:42:24.938784Z

Period
96.11 min
Inclination
69.9992°
Eccentricity
0.0002788
Mean motion
14.98331550 rev/d
Perigee alt
570.1 km
Apogee alt
574.0 km
Semi-major
6,950.2 km
B*
-1.0609e-5
RAAN
142.1063°
Arg perigee
263.0941°
Mean anomaly
96.9901°
Rev number
27,623

§ Raw data

STARLINK-30721 49153U 21082Z   26256.02945531 -.00000220  00000+0 -10609-4 0  99902 49153  69.9992 142.1063 0002788 263.0941  96.9901 14.98331550276238

JSON: /api/v1/satellites/49153 · /tle

For live sub-satellite position, see the globe view (requires WebGL).

§ Visibility from observer

Set your observer location to see the next 7 days of passes ≥ 10°. The values pass through the URL so the page stays shareable.

No JS? Fill the form by hand. The geolocation button needs JavaScript.